M7ANY Weather Reports


time (UTC)temp
C
wind
direction
speed
KPH
gust
KPH
rain 1hr
cm
rain 24hr
cm
rain mn
cm
humidity
%
barometer
mb
20260507141503 15 164 4.8 14.5 0.00 0.00 0.00 53 1015.3
20260507141004 15 163 6.4 14.5 0.00 0.00 0.00 54 1015.4
20260507140503 15 160 4.8 14.5 0.00 0.00 0.00 54 1015.4
20260507140005 15 153 4.8 12.9 0.00 0.00 0.00 55 1015.4
20260507135716 15 160 4.8 11.3 0.00 0.00 0.00 55 1015.4
20260507135214 15 156 6.4 11.3 0.00 0.00 0.00 55 1015.5
20260507134503 15 146 8.0 14.5 0.00 0.00 0.00 54 1015.5
20260507134215 15 154 6.4 14.5 0.00 0.00 0.00 54 1015.5
20260507133503 15 165 4.8 16.1 0.00 0.00 0.00 53 1015.6
20260507133004 15 163 6.4 16.1 0.00 0.00 0.00 53 1015.6
20260507132503 15 162 6.4 16.1 0.00 0.00 0.00 54 1015.6
20260507132003 16 160 6.4 16.1 0.00 0.00 0.00 51 1015.6
20260507131504 16 151 6.4 16.1 0.00 0.00 0.00 52 1015.5
20260507131003 16 134 4.8 12.9 0.00 0.00 0.00 49 1015.5
20260507130504 16 159 6.4 14.5 0.00 0.00 0.00 50 1015.5
20260507130214 17 170 6.4 16.1 0.00 0.00 0.00 50 1015.5
20260507125504 17 164 8.0 16.1 0.00 0.00 0.00 49 1015.5
20260507125004 17 164 8.0 14.5 0.00 0.00 0.00 49 1015.6
20260507124503 17 156 6.4 14.5 0.00 0.00 0.00 49 1015.5
20260507124003 17 158 6.4 12.9 0.00 0.00 0.00 52 1015.6
20260507123503 17 167 6.4 16.1 0.00 0.00 0.00 52 1015.5
20260507123003 17 178 8.0 20.9 0.00 0.00 0.00 47 1015.6
20260507122504 17 185 8.0 20.9 0.00 0.00 0.00 50 1015.7
20260507122004 17 181 4.8 16.1 0.00 0.00 0.00 51 1015.6
20260507121503 17 188 4.8 16.1 0.00 0.00 0.00 51 1015.6
20260507121003 17 192 8.0 19.3 0.00 0.00 0.00 53 1015.7
20260507120504 17 196 8.0 19.3 0.00 0.00 0.00 51 1015.8
20260507120003 17 201 4.8 19.3 0.00 0.00 0.00 51 1015.8
20260507115503 16 182 3.2 11.3 0.00 0.00 0.00 59 1015.9
20260507115004 16 179 1.6 12.9 0.00 0.00 0.00 55 1015.9
20260507114714 16 192 4.8 14.5 0.00 0.00 0.00 55 1015.9
20260507114003 16 189 6.4 14.5 0.00 0.00 0.00 55 1015.9
20260507113714 15 180 4.8 14.5 0.00 0.00 0.00 56 1015.9
20260507113004 15 173 6.4 14.5 0.00 0.00 0.00 55 1015.9
20260507112503 15 166 6.4 14.5 0.00 0.00 0.00 55 1016.0
20260507112003 16 152 3.2 14.5 0.00 0.00 0.00 56 1016.0
20260507111506 16 171 4.8 16.1 0.00 0.00 0.00 56 1015.9
20260507111004 16 181 8.0 16.1 0.00 0.00 0.00 55 1016.1
20260507110504 16 189 8.0 17.7 0.00 0.00 0.00 54 1016.1
20260507110005 16 190 6.4 17.7 0.00 0.00 0.00 57 1016.1
20260507105504 15 194 4.8 14.5 0.00 0.00 0.00 57 1016.2
20260507105003 15 196 4.8 14.5 0.00 0.00 0.00 59 1016.2
20260507104504 15 168 6.4 14.5 0.00 0.00 0.00 59 1016.2
20260507104003 15 149 6.4 16.1 0.00 0.00 0.00 60 1016.3
20260507103715 15 150 6.4 16.1 0.00 0.00 0.00 59 1016.3
20260507103003 14 183 3.2 12.9 0.00 0.00 0.00 64 1016.3
20260507101503 13 193 9.7 17.7 0.00 0.00 0.00 67 1016.3
20260507101003 13 187 8.0 17.7 0.00 0.00 0.00 65 1016.4
20260507100504 14 164 6.4 16.1 0.00 0.00 0.00 61 1016.4
20260507100216 15 159 6.4 16.1 0.00 0.00 0.00 63 1016.4
20260507095503 14 168 4.8 12.9 0.00 0.00 0.00 68 1016.3
20260507095003 13 163 6.4 14.5 0.00 0.00 0.00 66 1016.4
20260507094504 13 162 6.4 14.5 0.00 0.00 0.00 67 1016.4
20260507094213 13 168 6.4 11.3 0.00 0.00 0.00 67 1016.5
20260507093504 13 172 4.8 12.9 0.00 0.00 0.00 67 1016.5
20260507093004 13 160 6.4 12.9 0.00 0.00 0.00 67 1016.5
20260507092503 13 172 6.4 12.9 0.00 0.00 0.00 68 1016.5
20260507092004 13 184 6.4 12.9 0.00 0.00 0.00 70 1016.5
20260507091503 13 181 6.4 14.5 0.00 0.00 0.00 68 1016.5
20260507091007 13 188 4.8 14.5 0.00 0.00 0.00 67 1016.5
20260507090504 13 211 1.6 12.9 0.00 0.00 0.00 71 1016.5
20260507090216 13 203 1.6 8.0 0.00 0.00 0.00 71 1016.5
20260507085003 12 211 3.2 11.3 0.00 0.00 0.00 73 1016.6
20260507084504 12 177 3.2 11.3 0.00 0.00 0.00 72 1016.5
20260507084003 12 171 3.2 9.7 0.00 0.00 0.00 70 1016.5
20260507083503 13 189 1.6 8.0 0.00 0.00 0.00 70 1016.5
20260507083004 13 205 1.6 9.7 0.00 0.00 0.00 71 1016.6
20260507082504 13 203 1.6 9.7 0.00 0.00 0.00 70 1016.6
20260507082004 13 201 1.6 8.0 0.00 0.00 0.00 70 1016.6
20260507081504 13 216 1.6 6.4 0.00 0.00 0.00 71 1016.6
20260507081003 13 215 0.0 6.4 0.00 0.00 0.00 71 1016.6
20260507080503 13 222 0.0 3.2 0.00 0.00 0.00 73 1016.6
20260507080005 12 0 0.0 0.0 0.00 0.00 0.00 74 1016.6
20260507075503 12 0 0.0 0.0 0.00 0.00 0.00 75 1016.6
20260507075003 12 0 0.0 0.0 0.00 0.00 0.00 76 1016.6
20260507074513 12 0 0.0 0.0 0.00 0.00 0.00 76 1016.6
20260507074214 11 0 0.0 0.0 0.00 0.00 0.00 77 1016.6
20260507073504 11 0 0.0 0.0 0.00 0.00 0.00 78 1016.5
20260507073004 11 0 0.0 0.0 0.00 0.00 0.00 80 1016.5
20260507072713 10 0 0.0 0.0 0.00 0.00 0.00 82 1016.5
20260507072004 9 0 0.0 0.0 0.00 0.00 0.00 84 1016.5
20260507071714 9 0 0.0 0.0 0.00 0.00 0.00 85 1016.4
20260507071003 8 0 0.0 0.0 0.00 0.00 0.00 89 1016.4
20260507070715 8 0 0.0 0.0 0.00 0.00 0.00 91 1016.4
20260507070006 7 0 0.0 0.0 0.00 0.00 0.00 94 1016.4
20260507065504 7 132 0.0 1.6 0.00 0.00 0.00 95 1016.4
20260507065004 6 132 0.0 1.6 0.00 0.00 0.00 95 1016.4
20260507064504 6 131 0.0 3.2 0.00 0.00 0.00 95 1016.4
20260507064215 6 131 0.0 3.2 0.00 0.00 0.00 95 1016.3
20260507063718 5 131 0.0 3.2 0.00 0.00 0.00 96 1016.3
20260507063004 5 0 0.0 0.0 0.00 0.00 0.00 96 1016.3
20260507062504 4 0 0.0 0.0 0.00 0.00 0.00 96 1016.3
20260507062004 4 0 0.0 0.0 0.00 0.00 0.00 96 1016.3
20260507061503 3 0 0.0 0.0 0.00 0.00 0.00 95 1016.3
20260507061003 3 0 0.0 0.0 0.00 0.00 0.00 95 1016.3
20260507060504 3 0 0.0 0.0 0.00 0.00 0.00 95 1016.2
20260507060003 3 0 0.0 0.0 0.00 0.00 0.00 95 1016.2
20260507055503 3 0 0.0 0.0 0.00 0.00 0.00 95 1016.2
20260507055215 2 0 0.0 0.0 0.00 0.00 0.00 95 1016.2
20260507054504 2 0 0.0 0.0 0.00 0.00 0.00 95 1016.2
20260507054003 2 175 0.0 3.2 0.00 0.00 0.00 94 1016.2
20260507053504 2 175 0.0 3.2 0.00 0.00 0.00 95 1016.1
20260507053005 2 175 0.0 1.6 0.00 0.00 0.00 94 1016.2
20260507052503 1 0 0.0 0.0 0.00 0.00 0.00 94 1016.2
20260507052217 1 0 0.0 0.0 0.00 0.00 0.00 94 1016.1
20260507051504 1 271 0.0 1.6 0.00 0.00 0.00 93 1016.2
20260507051003 1 0 0.0 0.0 0.00 0.00 0.00 93 1016.2
20260507050504 1 0 0.0 0.0 0.00 0.00 0.00 93 1016.1
20260507050214 1 0 0.0 0.0 0.00 0.00 0.00 93 1016.1
20260507045503 1 0 0.0 0.0 0.00 0.00 0.00 93 1016.1
20260507045003 1 0 0.0 0.0 0.00 0.00 0.00 93 1016.1
20260507044503 1 0 0.0 0.0 0.00 0.00 0.00 92 1016.1
20260507044216 1 0 0.0 0.0 0.00 0.00 0.00 93 1016.0
20260507043503 1 0 0.0 0.0 0.00 0.00 0.00 92 1015.9
20260507043004 1 0 0.0 0.0 0.00 0.00 0.00 92 1016.0
20260507042504 1 0 0.0 0.0 0.00 0.00 0.00 92 1015.9
20260507042003 1 0 0.0 0.0 0.00 0.00 0.00 92 1015.9
20260507041504 1 0 0.0 0.0 0.00 0.00 0.00 92 1015.9
20260507041003 1 0 0.0 0.0 0.00 0.00 0.00 92 1015.9
20260507040504 1 0 0.0 0.0 0.00 0.00 0.00 92 1015.9
20260507040004 1 0 0.0 0.0 0.00 0.00 0.00 92 1015.8
20260507035504 1 0 0.0 0.0 0.00 0.00 0.00 92 1015.9
20260507035003 1 0 0.0 0.0 0.00 0.00 0.00 92 1015.9
20260507034503 1 0 0.0 0.0 0.00 0.00 0.00 92 1015.9
20260507034216 1 0 0.0 0.0 0.00 0.00 0.00 92 1015.9
20260507033504 2 0 0.0 0.0 0.00 0.00 0.00 92 1016.0
20260507033212 2 0 0.0 0.0 0.00 0.00 0.00 92 1016.1
20260507032504 2 0 0.0 0.0 0.00 0.00 0.00 92 1016.0
20260507032213 2 0 0.0 0.0 0.00 0.00 0.00 92 1016.1
20260507031504 2 0 0.0 0.0 0.00 0.00 0.00 93 1016.0
20260507031004 2 0 0.0 0.0 0.00 0.00 0.00 92 1016.1
20260507030504 2 0 0.0 0.0 0.00 0.00 0.00 93 1016.1
20260507030005 2 0 0.0 0.0 0.00 0.00 0.00 92 1016.1
20260507025503 2 0 0.0 0.0 0.00 0.00 0.00 92 1016.1
20260507025004 2 0 0.0 0.0 0.00 0.00 0.00 92 1015.9
20260507024504 2 0 0.0 0.0 0.00 0.00 0.00 92 1016.0
20260507024003 2 0 0.0 0.0 0.00 0.00 0.00 92 1015.9
20260507023504 2 0 0.0 0.0 0.00 0.00 0.00 92 1015.9
20260507023218 2 0 0.0 0.0 0.00 0.00 0.00 92 1015.9
20260507022504 2 0 0.0 0.0 0.00 0.00 0.00 92 1015.9
20260507022214 2 268 0.0 4.8 0.00 0.00 0.00 92 1015.9
20260507021717 2 269 1.6 4.8 0.00 0.00 0.00 92 1015.9
20260507021003 2 265 0.0 4.8 0.00 0.00 0.00 92 1015.9
20260507020504 2 0 0.0 0.0 0.00 0.00 0.00 92 1015.9
20260507020216 2 0 0.0 0.0 0.00 0.00 0.00 91 1015.9
20260507015503 2 0 0.0 0.0 0.00 0.00 0.00 91 1015.9
20260507015004 2 0 0.0 0.0 0.00 0.00 0.00 91 1015.9
20260507014504 2 0 0.0 0.0 0.00 0.00 0.00 91 1015.9
20260507014213 2 0 0.0 0.0 0.00 0.00 0.00 91 1016.0
20260507013503 2 0 0.0 0.0 0.00 0.00 0.00 91 1016.0
20260507013004 2 0 0.0 0.0 0.00 0.00 0.00 91 1016.0
20260507012503 2 0 0.0 0.0 0.00 0.00 0.00 91 1016.0
20260507012215 2 0 0.0 0.0 0.00 0.00 0.00 91 1016.0
20260507011503 2 0 0.0 0.0 0.00 0.00 0.00 90 1016.0
20260507011215 2 0 0.0 0.0 0.00 0.00 0.00 90 1016.0
20260507010713 2 0 0.0 0.0 0.00 0.00 0.00 90 1015.9
20260507010003 3 0 0.0 0.0 0.00 0.00 0.00 90 1016.0
20260507005714 3 0 0.0 0.0 0.00 0.00 0.00 90 1015.9
20260507005003 3 0 0.0 0.0 0.00 0.00 0.00 90 1015.9
20260507004503 3 0 0.0 0.0 0.00 0.00 0.00 90 1015.9
20260507004004 3 0 0.0 0.0 0.00 0.00 0.00 90 1015.9
20260507003504 3 0 0.0 0.0 0.00 0.00 0.00 90 1015.9
20260507003004 3 277 0.0 3.2 0.00 0.00 0.00 90 1016.0
20260507002504 3 318 0.0 3.2 0.00 0.00 0.00 90 1016.1
20260507002004 3 338 0.0 3.2 0.00 0.00 0.00 90 1016.1
20260507001713 3 9 0.0 1.6 0.00 0.00 0.00 90 1016.1
20260507001003 3 9 0.0 1.6 0.00 0.00 0.00 89 1016.1
20260507000503 3 9 0.0 1.6 0.00 0.00 0.00 89 1016.1
20260507000005 3 9 0.0 1.6 0.00 0.00 0.00 89 1016.1
20260506235504 3 0 0.0 0.0 0.00 0.00 0.00 89 1016.1
20260506235213 3 9 0.0 1.6 0.00 0.00 0.00 88 1016.1
20260506234503 3 9 0.0 1.6 0.00 0.00 0.00 88 1016.0
20260506234214 3 0 0.0 0.0 0.00 0.00 0.00 88 1016.0
20260506233717 3 0 0.0 0.0 0.00 0.00 0.00 88 1016.0
20260506233003 4 0 0.0 0.0 0.00 0.00 0.00 88 1016.0
20260506232504 4 0 0.0 0.0 0.00 0.00 0.00 88 1016.0
20260506232003 4 0 0.0 0.0 0.00 0.00 0.00 88 1016.1
20260506231503 4 0 0.0 0.0 0.00 0.00 0.00 88 1016.1
20260506231004 4 9 0.0 1.6 0.00 0.00 0.00 87 1016.1
20260506230504 4 9 0.0 1.6 0.00 0.00 0.00 87 1016.1
20260506230218 4 9 0.0 3.2 0.00 0.00 0.00 87 1016.1
20260506225504 4 9 0.0 3.2 0.00 0.00 0.00 87 1016.2
20260506225003 5 0 0.0 0.0 0.00 0.00 0.00 86 1016.2
20260506224717 5 0 0.0 0.0 0.00 0.00 0.00 86 1016.2
20260506224003 5 0 0.0 0.0 0.00 0.00 0.00 86 1016.2
20260506223503 5 0 0.0 0.0 0.00 0.00 0.00 86 1016.2
20260506223004 5 0 0.0 0.0 0.00 0.00 0.00 86 1016.2
20260506222504 5 0 0.0 0.0 0.00 0.00 0.00 85 1016.1
20260506222003 5 0 0.0 0.0 0.00 0.00 0.00 85 1016.1
20260506221714 5 0 0.0 0.0 0.00 0.00 0.00 85 1016.0
20260506221004 6 9 0.0 1.6 0.00 0.00 0.00 85 1016.0
20260506220503 6 12 0.0 3.2 0.00 0.00 0.00 85 1016.0
20260506220004 6 26 1.6 4.8 0.00 0.00 0.00 85 1015.9
20260506215504 6 35 0.0 4.8 0.00 0.00 0.00 84 1016.0
20260506215004 6 39 1.6 3.2 0.00 0.00 0.00 84 1015.9
20260506214503 6 42 1.6 4.8 0.00 0.00 0.00 84 1015.9
20260506214215 6 44 1.6 4.8 0.00 0.00 0.00 84 1015.9
20260506213718 6 43 1.6 4.8 0.00 0.00 0.00 84 1015.9
20260506213004 7 52 0.0 6.4 0.00 0.00 0.00 83 1015.8
20260506212503 7 92 1.6 9.7 0.00 0.00 0.00 84 1015.7
20260506212003 7 98 4.8 12.9 0.00 0.00 0.00 84 1015.6
20260506211503 7 101 4.8 12.9 0.00 0.00 0.00 83 1015.6
20260506211004 7 94 3.2 11.3 0.00 0.00 0.00 83 1015.7
20260506210503 7 72 3.2 8.0 0.00 0.00 0.00 83 1015.7
20260506210004 7 66 3.2 6.4 0.00 0.00 0.00 83 1015.8
20260506205503 7 63 3.2 9.7 0.00 0.00 0.00 83 1015.8
20260506205004 7 57 3.2 9.7 0.00 0.00 0.00 83 1015.8
20260506204503 7 54 3.2 8.0 0.00 0.00 0.00 83 1015.8
20260506204004 7 79 3.2 6.4 0.00 0.00 0.00 83 1015.8
20260506203714 7 83 3.2 6.4 0.00 0.00 0.00 83 1015.8
20260506203004 7 71 3.2 6.4 0.00 0.00 0.00 82 1015.8
20260506202715 7 68 3.2 8.0 0.00 0.00 0.00 82 1015.7
20260506202003 7 71 4.8 11.3 0.00 0.00 0.00 82 1015.7
20260506201504 7 71 4.8 14.5 0.00 0.00 0.00 81 1015.6
20260506201004 7 79 4.8 14.5 0.00 0.00 0.00 81 1015.6
20260506200503 8 86 3.2 11.3 0.00 0.00 0.00 81 1015.6
20260506200003 8 82 4.8 12.9 0.00 0.00 0.00 80 1015.5
20260506195718 8 82 4.8 12.9 0.00 0.00 0.00 80 1015.5
20260506195003 8 78 6.4 12.9 0.00 0.00 0.00 80 1015.6
20260506194713 8 75 6.4 16.1 0.00 0.00 0.00 79 1015.5
20260506194004 8 80 6.4 16.1 0.00 0.00 0.00 79 1015.5
20260506193504 8 80 6.4 14.5 0.00 0.00 0.00 78 1015.4
20260506193004 8 72 6.4 16.1 0.00 0.00 0.00 78 1015.4
20260506192715 8 74 6.4 16.1 0.00 0.00 0.00 77 1015.4
20260506192004 8 69 6.4 14.5 0.00 0.00 0.00 76 1015.4
20260506191504 8 63 6.4 14.5 0.00 0.00 0.00 76 1015.3
20260506191004 8 74 8.0 14.5 0.00 0.00 0.00 75 1015.4
20260506190504 8 73 8.0 16.1 0.00 0.00 0.00 74 1015.3
20260506190215 9 72 8.0 16.1 0.00 0.00 0.00 74 1015.3
20260506185504 9 65 6.4 16.1 0.00 0.00 0.00 74 1015.3
20260506185003 9 65 4.8 12.9 0.00 0.00 0.00 74 1015.3
20260506184503 9 74 6.4 14.5 0.00 0.00 0.00 74 1015.2
20260506184217 9 75 6.4 14.5 0.00 0.00 0.00 73 1015.2
20260506183504 9 70 6.4 16.1 0.00 0.00 0.00 75 1015.2
20260506183005 9 59 6.4 16.1 0.00 0.00 0.00 74 1015.2
20260506182504 10 65 9.7 19.3 0.00 0.00 0.00 74 1015.2
20260506182004 10 70 9.7 19.3 0.00 0.00 0.00 73 1015.2
20260506181503 10 63 9.7 17.7 0.00 0.00 0.00 73 1015.1
20260506181003 10 65 9.7 17.7 0.00 0.00 0.00 73 1015.1
20260506180504 10 69 9.7 19.3 0.00 0.00 0.00 72 1015.1
20260506180004 10 69 9.7 19.3 0.00 0.00 0.00 73 1015.1
20260506175503 10 67 11.3 19.3 0.00 0.00 0.00 72 1015.0
20260506175217 10 61 9.7 19.3 0.00 0.00 0.00 72 1015.1
20260506174715 10 56 8.0 19.3 0.00 0.00 0.00 72 1015.0
20260506174003 10 74 8.0 17.7 0.00 0.00 0.00 72 1015.0
20260506173504 10 69 9.7 17.7 0.00 0.00 0.00 71 1015.0
20260506173003 10 57 11.3 20.9 0.00 0.00 0.00 70 1014.9
20260506172504 10 66 11.3 20.9 0.00 0.00 0.00 70 1014.9
20260506172003 10 76 8.0 19.3 0.00 0.00 0.00 71 1014.8
20260506171504 11 62 8.0 25.7 0.00 0.00 0.00 71 1014.9
20260506171216 10 57 9.7 25.7 0.00 0.00 0.00 70 1014.8
20260506170503 11 62 9.7 19.3 0.00 0.00 0.00 70 1014.8
20260506170217 11 64 9.7 17.7 0.00 0.00 0.00 69 1014.8
20260506165504 11 69 9.7 19.3 0.00 0.00 0.00 71 1014.8
20260506165003 11 71 9.7 19.3 0.00 0.00 0.00 71 1014.8
20260506164503 11 67 9.7 19.3 0.00 0.00 0.00 71 1014.8
20260506164004 11 67 11.3 19.3 0.00 0.00 0.00 72 1014.8
20260506163504 10 74 11.3 22.5 0.00 0.00 0.00 71 1014.9
20260506163003 10 72 11.3 22.5 0.00 0.00 0.00 72 1014.9
20260506162503 10 54 9.7 20.9 0.00 0.00 0.00 71 1014.9
20260506162004 11 40 8.0 19.3 0.00 0.00 0.00 71 1014.9
20260506161503 11 48 9.7 20.9 0.00 0.00 0.00 70 1014.9
20260506161003 11 50 9.7 22.5 0.00 0.00 0.00 69 1014.8
20260506160004 11 36 8.0 16.1 0.00 0.00 0.00 69 1014.8
20260506155503 11 39 9.7 19.3 0.00 0.00 0.00 69 1014.7
20260506155004 11 40 9.7 25.7 0.00 0.00 0.00 69 1014.8
20260506154504 11 38 9.7 25.7 0.00 0.00 0.00 70 1014.8
20260506154004 11 42 9.7 19.3 0.00 0.00 0.00 69 1014.8
20260506153503 11 43 11.3 19.3 0.00 0.00 0.00 69 1014.9
20260506153003 11 44 11.3 19.3 0.00 0.00 0.00 68 1014.9
20260506152503 11 43 8.0 19.3 0.00 0.00 0.00 69 1014.8
20260506152003 11 47 8.0 17.7 0.00 0.00 0.00 70 1014.9
20260506151503 11 53 9.7 20.9 0.00 0.00 0.00 70 1014.9
20260506151003 11 48 8.0 20.9 0.00 0.00 0.00 69 1014.9
20260506150505 11 44 9.7 19.3 0.00 0.00 0.00 71 1015.0
20260506150004 11 47 12.9 22.5 0.00 0.00 0.00 71 1015.0
20260506145503 11 46 14.5 24.1 0.00 0.00 0.00 70 1015.0
20260506145004 11 38 12.9 24.1 0.00 0.00 0.00 70 1015.0
20260506144503 11 37 11.3 22.5 0.00 0.00 0.00 71 1015.0
20260506144004 11 43 11.3 22.5 0.00 0.00 0.00 70 1015.1
20260506143713 11 45 9.7 22.5 0.00 0.00 0.00 70 1015.1
20260506143004 11 49 11.3 22.5 0.00 0.00 0.00 72 1015.1
20260506142503 11 48 11.3 25.7 0.00 0.00 0.00 71 1015.0
20260506142003 11 39 11.3 25.7 0.00 0.00 0.00 70 1015.0